Location: Krakow
(50.0830°N, 19.9170°E)
Time: 19:24:27
(UTC+01:00)

Vanguard 1 Rocket - Pass Details

Date: 22 December 2025
Orbit: 651 x 4216 km, 34.3° (Epoch: 19 January)

Event Time Altitude Azimuth Distance (km) Brightness Sun altitude
Exits shadow 05:10:03 - 207° (SSW) 2,403 9.4 -22.3°
Reaches altitude 10° 05:11:04 10° 196° (SSW) 2,185 9.3 -22.1°
Maximum altitude 05:12:38 11° 177° (S) 2,011 9.3 -21.9°
Drops below altitude 10° 05:14:07 10° 157° (SSE) 2,062 9.7 -21.6°
Sets 05:17:59 0° 121° (ESE) 2,988 11.3 -21.0°
